Billings, MT

4:39 PM MDT on April 23, 2017 (GMT -0600)
Billings Logan International

Weather History for KBIL - October, 2010

Change the Weather History Date:

Sunday, October 31, 2010

  Actual Average Record
Temperature  
Mean Temperature 51 °F 43 °F  
Max Temperature 62 °F 53 °F 76 °F (1999)
Min Temperature 40 °F 32 °F 2 °F (1984)
Degree Days  
Heating Degree Days 14 22  
Month to date heating degree days 352 521  
Since 1 July heating degree days 572 752  
Cooling Degree Days 0 0  
Month to date cooling degree days 7 3  
Year to date cooling degree days 525 636  
Moisture  
Dew Point 37 °F    
Average Humidity 64    
Maximum Humidity 89    
Minimum Humidity 39    
Precipitation  
Precipitation T in 0.03 in 0.93 in (1974)
Month to date precipitation 0.63 1.18  
Year to date precipitation 15.91 12.53  
Snow  
Snow 0.00 in 0.20 in 5.40 in (1973)
Month to date snowfall T 4.1  
Since 1 July snowfall T 5.2  
Since 1 September snowfall T 5.2  
Snow Depth 0.00 in    
Sea Level Pressure  
Sea Level Pressure 29.98 in    
Wind  
Wind Speed 11 mph (SW)    
Max Wind Speed 22 mph    
Max Gust Speed 28 mph    
Visibility 10 miles    
Events Rain    
T = Trace of Precipitation, MM = Missing Value Source: NWS Daily Summary

Daily Weather History Graph

Daily Weather History Graph

Search for Another Location

Airport or City:

Trip Planner

Search our weather history database for the weather conditions in past years. The results will help you decide how hot, cold, wet, or windy it might be!

Date:

Astronomy

Oct. 31, 2010 Rise Set
Actual Time 7:52 AM MDT 6:01 PM MDT
Civil Twilight 7:21 AM MDT 6:32 PM MDT
Nautical Twilight 6:46 AM MDT 7:08 PM MDT
Astronomical Twilight 6:12 AM MDT 7:42 PM MDT
Moon 1:01 AM MDT (10/31) 2:57 PM MDT (10/31)
Length of Visible Light 11h 11m
Length of Day
10h 08m
Last Quarter, 36% of the Moon is Illuminated
Oct 31
Last Quarter
Nov 5
New
Nov 13
First Quarter
Nov 21
Full
Nov 28
Last Quarter

Hourly Weather History & Observations

Time (MDT) Temp. Windchill Dew Point Humidity Pressure Visibility Wind Dir Wind Speed Gust Speed Precip Events Conditions
12:53 AM 46.0 °F - 33.1 °F 61% 29.86 in 10.0 mi Calm Calm - N/A   Scattered Clouds
1:53 AM 46.9 °F - 33.1 °F 59% 29.87 in 10.0 mi SSW 3.5 mph - N/A   Partly Cloudy
2:53 AM 44.6 °F 41.4 °F 33.8 °F 66% 29.87 in 10.0 mi SW 5.8 mph - N/A   Partly Cloudy
3:53 AM 45.0 °F 39.7 °F 34.0 °F 65% 29.88 in 10.0 mi WSW 10.4 mph - N/A   Partly Cloudy
4:53 AM 39.9 °F 32.5 °F 32.0 °F 73% 29.91 in 10.0 mi SW 12.7 mph - N/A   Clear
5:53 AM 42.1 °F 33.6 °F 36.0 °F 79% 29.92 in 10.0 mi WSW 18.4 mph - N/A   Partly Cloudy
6:53 AM 43.0 °F 35.4 °F 36.0 °F 76% 29.93 in 10.0 mi WSW 16.1 mph - N/A   Scattered Clouds
7:53 AM 44.1 °F 36.8 °F 36.0 °F 73% 29.94 in 10.0 mi WSW 16.1 mph - N/A   Scattered Clouds
8:53 AM 43.0 °F 37.2 °F 36.0 °F 76% 29.95 in 10.0 mi SSW 10.4 mph - N/A   Partly Cloudy
9:53 AM 46.0 °F 41.9 °F 37.0 °F 71% 29.95 in 10.0 mi SW 8.1 mph - N/A   Partly Cloudy
10:53 AM 51.1 °F - 37.0 °F 59% 29.94 in 10.0 mi SW 11.5 mph - N/A   Partly Cloudy
11:53 AM 55.0 °F - 37.9 °F 53% 29.92 in 10.0 mi SW 11.5 mph - N/A   Partly Cloudy
12:53 PM 57.0 °F - 39.0 °F 51% 29.93 in 10.0 mi SW 11.5 mph - N/A   Partly Cloudy
1:53 PM 59.0 °F - 36.0 °F 42% 29.91 in 10.0 mi SW 8.1 mph - N/A   Scattered Clouds
2:53 PM 60.1 °F - 35.1 °F 39% 29.92 in 10.0 mi SW 6.9 mph - N/A   Mostly Cloudy
3:53 PM 61.0 °F - 36.0 °F 39% 29.92 in 10.0 mi SSW 6.9 mph - N/A   Mostly Cloudy
4:53 PM 61.0 °F - 35.1 °F 38% 29.96 in 10.0 mi SW 5.8 mph - 0.00 in   Mostly Cloudy
5:33 PM 57.2 °F - 35.6 °F 44% 29.99 in 10.0 mi NNW 12.7 mph - N/A   Mostly Cloudy
5:53 PM 53.1 °F - 41.0 °F 64% 30.01 in 10.0 mi WNW 15.0 mph - 0.00 in Rain Light Rain
6:53 PM 50.0 °F - 42.1 °F 74% 30.09 in 10.0 mi West 12.7 mph - 0.00 in Rain Light Rain
7:53 PM 48.0 °F - 44.1 °F 86% 30.13 in 10.0 mi SSW 11.5 mph - 0.00 in Rain Light Rain
8:53 PM 46.0 °F 40.2 °F 43.0 °F 89% 30.14 in 10.0 mi SW 12.7 mph - 0.00 in   Mostly Cloudy
9:53 PM 46.0 °F 40.6 °F 42.1 °F 86% 30.17 in 10.0 mi SW 11.5 mph - N/A   Scattered Clouds
10:53 PM 46.0 °F 39.9 °F 41.0 °F 83% 30.18 in 10.0 mi WSW 13.8 mph - N/A   Scattered Clouds
11:53 PM 45.0 °F 40.6 °F 41.0 °F 86% 30.19 in 10.0 mi SW 8.1 mph - N/A   Partly Cloudy